Regional Weather Roundup
Issued by NWS

Home | Current Version | Previous Version | Text Only | Print | Product List | Glossary On
Versions: 1 2 3 4 5 6 7 8 9 10 11 12 13 14 15 16 17 18 19 20 21 22 23 24 25 26 27 28 29 30 31 32 33 34 35 36 37 38 39 40 41 42 43 44 45 46 47 48 49 50
000
ASUS43 KFSD 262302
RWRSD

WEATHER ROUNDUP FOR SOUTH DAKOTA
NATIONAL WEATHER SERVICE SIOUX FALLS SD
600 PM CDT TUE AUG 26 2014

NOTE: "FAIR" INDICATES FEW OR NO CLOUDS BELOW 12,000 FEET WITH NO
SIGNIFICANT WEATHER AND/OR OBSTRUCTIONS TO VISIBILITY.


SDZ001>005-009-010-012>017-270000-
NORTHWEST AND NORTH CENTRAL SOUTH DAKOTA

CITY           SKY/WX    TMP DP  RH WIND       PRES   REMARKS
BUFFALO          N/A     71  55  56 NE8       30.07S
FAITH            N/A     69  55  60 E6        30.12R
MOBRIDGE       PTSUNNY   67  55  65 NE10      30.12S
$$

SDZ012>016-024>037-041>051-057-063-072>074-270000-
SOUTHWEST AND SOUTH CENTRAL SOUTH DAKOTA

CITY           SKY/WX    TMP DP  RH WIND       PRES   REMARKS
RAPID CTY ARPT PTSUNNY   75  58  55 N8        30.10S
PIERRE         MOSUNNY   72  56  57 E13       30.09F
CUSTER         MOSUNNY   70  56  61 E13       30.20R
ELLSWORTH AFB  MOSUNNY   75  59  57 E5        30.10S
PHILIP         PTSUNNY   78  56  46 E17       30.05F
PINE RIDGE     PTSUNNY   80  60  50 NE8       30.06F
WINNER         FAIR      78  57  48 SE13      30.10F
$$

SDZ004>011-016>023-039-040-270000-
NORTHEAST SOUTH DAKOTA

CITY           SKY/WX    TMP DP  RH WIND       PRES   REMARKS
ABERDEEN       CLOUDY    61  53  75 E7        30.17F
WATERTOWN      PTSUNNY   66  54  65 CALM      30.17F
SISSETON         N/A     64  55  72 S3        30.17S
$$

SDZ017-020-022-023-036>040-048>070-270000-
SOUTHEAST SOUTH DAKOTA

CITY           SKY/WX    TMP DP  RH WIND       PRES   REMARKS
SIOUX FALLS    PTSUNNY   73  56  54 NE8       30.14F
HURON          PTSUNNY   69  53  56 E6        30.13F
CHAMBERLAIN    MOSUNNY   71  56  58 E8        30.12S
MITCHELL       MOSUNNY   73  58  59 E7        30.12F
YANKTON        FAIR      72  59  64 E6        30.12F
$$

ABBREVIATIONS USED IN REMARKS
   TC - TEMPERATURE IN CELSIUS
  WCI - WIND CHILL INDEX
   HX - HEAT INDEX
  VSB - VISIBILITY



USA.gov is the U.S. government's official web portal to all federal, state and local government web resources and services.